QPF
0.00 0.00 0.00 0.00 0.01 0.01 0.01 0.01 0.01 0.01 0.01 0.02 0.04 0.03 0.02 0.02 0.03 0.04 0.03 0.02 0.03 0.05 0.06 0.06 0.07 0.10 0.10 0.10 0.11 0.07 0.05 0.05 0.06 0.06 0.06 0.06 0.06 0.04 0.05 0.05 0.04 0.04 0.04
0.00 0.00 0.00 0.00 0.00 0.01 0.01 0.01 0.01 0.01 0.01 0.01 0.02 0.03 0.03 0.02 0.01 0.01 0.01 0.01 0.01 0.02 0.03 0.03 0.05 0.07 0.07 0.07 0.09 0.08 0.05 0.04 0.05 0.05 0.06 0.06 0.07 0.06 0.05 0.03 0.03 0.03 0.03
0.00 0.00 0.00 0.01 0.00 0.00 0.01 0.01 0.00 0.01 0.01 0.01 0.01 0.02 0.02 0.02 0.01 0.01 0.01 0.01 0.01 0.01 0.01 0.01 0.03 0.05 0.06 0.05 0.06 0.06 0.05 0.04 0.03 0.03 0.05 0.05 0.06 0.05 0.04 0.04 0.03 0.03 0.03
0.00 0.00 0.00 0.01 0.01 0.00 0.00 0.00 0.00 0.01 0.01 0.01 0.01 0.01 0.01 0.01 0.00 0.00 0.00 0.01 0.01 0.01 0.01 0.01 0.01 0.03 0.04 0.04 0.06 0.07 0.06 0.05 0.04 0.03 0.03 0.04 0.04 0.05 0.04 0.04 0.04 0.03 0.03
0.00 0.00 0.00 0.01 0.01 0.01 0.00 0.00 0.00 0.00 0.00 0.00 0.00 0.01 0.00 0.00 0.00 0.00 0.00 0.00 0.00 0.00 0.01 0.01 0.01 0.02 0.03 0.04 0.04 0.07 0.07 0.06 0.04 0.04 0.04 0.04 0.03 0.04 0.06 0.06 0.07 0.06 0.05
0.00 0.00 0.01 0.01 0.01 0.01 0.00 0.00 0.00 0.00 0.00 0.00 0.00 0.00 0.00 0.00 0.00 0.01 0.00 0.00 0.00 0.01 0.00 0.01 0.01 0.02 0.03 0.03 0.03 0.04 0.06 0.06 0.05 0.04 0.04 0.03 0.03 0.03 0.04 0.05 0.06 0.07 0.07
0.00 0.00 0.01 0.01 0.01 0.01 0.00 0.00 0.00 0.00 0.00 0.00 0.00 0.00 0.00 0.00 0.01 0.01 0.01 0.00 0.00 0.01 0.01 0.01 0.01 0.02 0.02 0.02 0.03 0.03 0.04 0.05 0.04 0.04 0.04 0.03 0.02 0.02 0.03 0.03 0.03 0.03 0.03
0.00 0.00 0.00 0.01 0.01 0.01 0.01 0.00 0.00 0.00 0.00 0.00 0.00 0.00 0.00 0.00 0.00 0.00 0.01 0.00 0.00 0.00 0.00 0.01 0.00 0.00 0.01 0.02 0.02 0.02 0.03 0.03 0.03 0.03 0.03 0.02 0.02 0.01 0.01 0.01 0.02 0.02 0.02
0.00 0.00 0.00 0.00 0.00 0.00 0.01 0.02 0.01 0.00 0.00 0.00 0.00 0.00 0.00 0.00 0.00 0.01 0.01 0.01 0.01 0.01 0.00 0.00 0.00 0.00 0.01 0.01 0.02 0.02 0.02 0.02 0.02 0.02 0.02 0.02 0.02 0.01 0.01 0.01 0.02 0.02 0.03
0.00 0.00 0.00 0.00 0.00 0.00 0.00 0.01 0.01 0.01 0.00 0.00 0.00 0.00 0.00 0.00 0.00 0.00 0.00 0.01 0.01 0.01 0.01 0.01 0.01 0.01 0.01 0.01 0.01 0.01 0.01 0.02 0.02 0.02 0.03 0.03 0.03 0.02 0.02 0.01 0.01 0.02 0.02
0.00 0.00 0.00 0.00 0.00 0.00 0.00 0.00 0.00 0.00 0.00 0.00 0.00 0.00 0.00 0.00 0.00 0.00 0.00 0.00 0.00 0.01 0.01 0.01 0.01 0.01 0.01 0.01 0.02 0.02 0.02 0.02 0.03 0.03 0.03 0.04 0.04 0.03 0.02 0.02 0.02 0.02 0.02
0.00 0.00 0.00 0.00 0.00 0.00 0.00 0.00 0.00 0.00 0.00 0.00 0.00 0.00 0.00 0.00 0.00 0.00 0.00 0.00 0.00 0.01 0.01 0.01 0.01 0.01 0.01 0.01 0.02 0.02 0.02 0.02 0.03 0.03 0.03 0.03 0.03 0.04 0.04 0.03 0.03 0.02 0.02
0.00 0.00 0.00 0.00 0.00 0.00 0.00 0.00 0.00 0.00 0.00 0.00 0.00 0.00 0.00 0.00 0.01 0.01 0.00 0.00 0.00 0.00 0.01 0.01 0.01 0.01 0.01 0.01 0.02 0.02 0.02 0.02 0.02 0.02 0.01 0.02 0.02 0.03 0.04 0.03 0.03 0.03 0.03
0.00 0.00 0.00 0.00 0.00 0.00 0.00 0.00 0.00 0.00 0.00 0.00 0.00 0.01 0.01 0.01 0.01 0.01 0.01 0.01 0.01 0.01 0.01 0.01 0.01 0.01 0.01 0.01 0.01 0.02 0.01 0.02 0.02 0.02 0.02 0.02 0.01 0.01 0.02 0.02 0.02 0.02 0.01
0.00 0.00 0.01 0.01 0.01 0.01 0.01 0.01 0.01 0.01 0.01 0.01 0.01 0.01 0.01 0.01 0.01 0.01 0.01 0.01 0.01 0.01 0.01 0.01 0.01 0.01 0.01 0.01 0.01 0.01 0.01 0.01 0.01 0.01 0.01 0.01 0.01 0.01 0.01 0.01 0.01 0.01 0.01
0.00 0.00 0.00 0.00 0.00 0.00 0.00 0.00 0.00 0.00 0.00 0.00 0.01 0.01 0.01 0.01 0.01 0.01 0.01 0.01 0.01 0.01 0.01 0.01 0.01 0.01 0.01 0.01 0.02 0.01 0.01 0.01 0.01 0.01 0.01 0.01 0.01 0.01 0.01 0.01 0.01 0.01 0.01
0.00 0.00 0.00 0.00 0.00 0.00 0.00 0.00 0.00 0.00 0.00 0.00 0.00 0.01 0.01 0.01 0.01 0.01 0.01 0.02 0.02 0.02 0.02 0.02 0.01 0.01 0.01 0.01 0.01 0.01 0.01 0.01 0.02 0.01 0.01 0.01 0.01 0.01 0.01 0.01 0.01 0.01 0.01
0.00 0.00 0.00 0.00 0.00 0.00 0.00 0.00 0.00 0.00 0.00 0.00 0.00 0.00 0.00 0.01 0.01 0.01 0.01 0.02 0.02 0.02 0.02 0.02 0.02 0.02 0.02 0.02 0.02 0.02 0.01 0.01 0.02 0.02 0.02 0.01 0.01 0.01 0.01 0.01 0.01 0.01 0.01
0.00 0.00 0.00 0.00 0.00 0.00 0.00 0.00 0.00 0.00 0.00 0.00 0.00 0.00 0.00 0.01 0.01 0.01 0.02 0.02 0.02 0.02 0.02 0.02 0.03 0.02 0.02 0.02 0.02 0.01 0.01 0.01 0.01 0.02 0.02 0.02 0.02 0.02 0.01 0.01 0.01 0.01 0.01
0.00 0.00 0.00 0.00 0.00 0.00 0.00 0.00 0.00 0.00 0.00 0.00 0.00 0.00 0.01 0.01 0.01 0.02 0.02 0.02 0.02 0.02 0.03 0.03 0.03 0.02 0.02 0.02 0.01 0.01 0.01 0.01 0.01 0.01 0.02 0.02 0.02 0.02 0.01 0.01 0.01 0.01 0.01
0.00 0.00 0.00 0.00 0.00 0.00 0.00 0.00 0.00 0.00 0.00 0.00 0.00 0.01 0.01 0.01 0.01 0.02 0.02 0.03 0.03 0.03 0.03 0.03 0.03 0.03 0.02 0.02 0.01 0.01 0.01 0.01 0.02 0.01 0.01 0.01 0.02 0.02 0.02 0.01 0.01 0.01 0.01
0.00 0.00 0.00 0.00 0.00 0.00 0.00 0.00 0.00 0.00 0.00 0.00 0.00 0.01 0.01 0.01 0.02 0.02 0.02 0.03 0.03 0.04 0.04 0.03 0.03 0.03 0.03 0.02 0.02 0.01 0.01 0.02 0.02 0.02 0.02 0.01 0.01 0.01 0.01 0.01 0.01 0.01 0.01
0.00 0.00 0.00 0.00 0.00 0.00 0.00 0.00 0.00 0.00 0.00 0.00 0.00 0.01 0.01 0.01 0.02 0.02 0.02 0.03 0.03 0.04 0.04 0.03 0.03 0.03 0.03 0.02 0.03 0.02 0.02 0.02 0.02 0.03 0.03 0.02 0.01 0.01 0.01 0.01 0.01 0.01 0.01
0.00 0.00 0.00 0.00 0.00 0.00 0.00 0.00 0.00 0.00 0.00 0.00 0.00 0.01 0.01 0.01 0.02 0.02 0.03 0.03 0.03 0.03 0.03 0.03 0.03 0.03 0.03 0.03 0.02 0.02 0.03 0.02 0.02 0.02 0.03 0.03 0.02 0.01 0.01 0.01 0.01 0.01 0.01
0.00 0.00 0.00 0.00 0.00 0.00 0.00 0.00 0.00 0.00 0.00 0.00 0.01 0.01 0.01 0.01 0.01 0.02 0.03 0.03 0.03 0.03 0.03 0.02 0.02 0.02 0.03 0.03 0.03 0.02 0.02 0.02 0.02 0.02 0.02 0.02 0.02 0.01 0.00 0.01 0.01 0.01 0.01
0.00 0.00 0.00 0.00 0.00 0.00 0.00 0.00 0.00 0.00 0.00 0.00 0.01 0.01 0.01 0.01 0.01 0.01 0.02 0.03 0.03 0.03 0.03 0.03 0.02 0.02 0.02 0.03 0.03 0.03 0.03 0.03 0.02 0.02 0.02 0.01 0.01 0.01 0.00 0.01 0.01 0.01 0.01
MSLP
1013.88 1014.35 1014.85 1015.37 1015.88 1016.37 1016.82 1017.23 1017.58 1017.87 1018.10 1018.25 1018.34 1018.37 1018.34 1018.27 1018.18 1018.07 1017.96 1017.86 1017.77 1017.69 1017.59 1017.49 1017.37 1017.22 1017.04 1016.84 1016.62 1016.38 1016.12 1015.85 1015.56 1015.25 1014.91 1014.53 1014.12 1013.69 1013.24 1012.80 1012.39 1012.05 1011.79
1013.22 1013.72 1014.26 1014.82 1015.38 1015.92 1016.43 1016.91 1017.34 1017.73 1018.04 1018.27 1018.42 1018.47 1018.45 1018.36 1018.22 1018.07 1017.93 1017.80 1017.71 1017.65 1017.61 1017.56 1017.51 1017.42 1017.30 1017.14 1016.94 1016.71 1016.46 1016.20 1015.92 1015.63 1015.31 1014.96 1014.57 1014.14 1013.67 1013.18 1012.72 1012.29 1011.94
1012.66 1013.18 1013.75 1014.34 1014.91 1015.48 1016.03 1016.55 1017.05 1017.50 1017.88 1018.18 1018.39 1018.48 1018.47 1018.38 1018.22 1018.04 1017.87 1017.74 1017.65 1017.62 1017.62 1017.63 1017.63 1017.60 1017.53 1017.40 1017.22 1017.00 1016.76 1016.51 1016.26 1016.01 1015.74 1015.44 1015.09 1014.69 1014.23 1013.73 1013.22 1012.74 1012.32
1012.28 1012.81 1013.38 1013.95 1014.52 1015.08 1015.63 1016.16 1016.68 1017.17 1017.61 1017.97 1018.22 1018.36 1018.38 1018.30 1018.16 1017.98 1017.81 1017.68 1017.60 1017.59 1017.63 1017.69 1017.74 1017.75 1017.70 1017.60 1017.43 1017.23 1017.01 1016.79 1016.58 1016.37 1016.16 1015.93 1015.64 1015.29 1014.87 1014.38 1013.86 1013.34 1012.86
1012.09 1012.60 1013.14 1013.68 1014.21 1014.72 1015.23 1015.74 1016.25 1016.75 1017.21 1017.61 1017.91 1018.10 1018.17 1018.13 1018.02 1017.87 1017.72 1017.61 1017.56 1017.57 1017.64 1017.73 1017.80 1017.84 1017.82 1017.73 1017.58 1017.39 1017.19 1017.00 1016.83 1016.68 1016.54 1016.38 1016.17 1015.89 1015.52 1015.07 1014.56 1014.03 1013.51
1012.08 1012.56 1013.05 1013.52 1013.97 1014.41 1014.84 1015.29 1015.75 1016.23 1016.69 1017.11 1017.46 1017.70 1017.83 1017.86 1017.80 1017.69 1017.59 1017.51 1017.49 1017.53 1017.61 1017.72 1017.82 1017.87 1017.86 1017.78 1017.65 1017.48 1017.31 1017.15 1017.03 1016.93 1016.86 1016.77 1016.63 1016.42 1016.12 1015.72 1015.24 1014.72 1014.19
1012.21 1012.63 1013.05 1013.44 1013.79 1014.12 1014.46 1014.82 1015.21 1015.64 1016.09 1016.51 1016.89 1017.18 1017.38 1017.47 1017.48 1017.44 1017.39 1017.36 1017.37 1017.43 1017.53 1017.65 1017.75 1017.82 1017.82 1017.76 1017.64 1017.50 1017.35 1017.22 1017.14 1017.10 1017.07 1017.05 1016.98 1016.85 1016.61 1016.27 1015.84 1015.35 1014.84
1012.43 1012.78 1013.11 1013.40 1013.64 1013.86 1014.09 1014.34 1014.65 1015.02 1015.42 1015.84 1016.23 1016.57 1016.82 1016.98 1017.06 1017.09 1017.10 1017.12 1017.16 1017.25 1017.36 1017.49 1017.60 1017.67 1017.69 1017.64 1017.55 1017.43 1017.31 1017.22 1017.17 1017.16 1017.18 1017.20 1017.19 1017.12 1016.94 1016.67 1016.30 1015.87 1015.39
1012.66 1012.93 1013.17 1013.36 1013.50 1013.61 1013.73 1013.88 1014.10 1014.39 1014.75 1015.14 1015.53 1015.88 1016.18 1016.40 1016.55 1016.65 1016.72 1016.78 1016.86 1016.98 1017.11 1017.25 1017.37 1017.45 1017.48 1017.45 1017.38 1017.29 1017.20 1017.14 1017.11 1017.13 1017.17 1017.23 1017.26 1017.23 1017.11 1016.91 1016.61 1016.24 1015.83
1012.87 1013.06 1013.21 1013.31 1013.36 1013.38 1013.40 1013.46 1013.59 1013.80 1014.10 1014.44 1014.81 1015.17 1015.49 1015.76 1015.96 1016.11 1016.24 1016.35 1016.48 1016.62 1016.77 1016.92 1017.06 1017.15 1017.21 1017.21 1017.16 1017.10 1017.03 1016.98 1016.97 1017.00 1017.06 1017.13 1017.18 1017.19 1017.13 1016.99 1016.77 1016.48 1016.15
1013.01 1013.13 1013.22 1013.25 1013.22 1013.16 1013.11 1013.09 1013.14 1013.28 1013.51 1013.80 1014.13 1014.47 1014.79 1015.08 1015.32 1015.52 1015.69 1015.85 1016.02 1016.19 1016.37 1016.54 1016.70 1016.82 1016.89 1016.92 1016.90 1016.86 1016.82 1016.78 1016.78 1016.80 1016.86 1016.93 1016.99 1017.03 1017.02 1016.94 1016.81 1016.61 1016.36
1013.08 1013.15 1013.18 1013.16 1013.09 1012.99 1012.88 1012.80 1012.79 1012.86 1013.01 1013.24 1013.51 1013.81 1014.12 1014.40 1014.66 1014.89 1015.10 1015.31 1015.51 1015.72 1015.93 1016.13 1016.31 1016.45 1016.55 1016.60 1016.61 1016.59 1016.56 1016.54 1016.53 1016.55 1016.60 1016.67 1016.74 1016.80 1016.83 1016.82 1016.75 1016.64 1016.48
1013.11 1013.14 1013.14 1013.09 1013.00 1012.86 1012.72 1012.60 1012.54 1012.54 1012.62 1012.77 1012.98 1013.23 1013.49 1013.76 1014.01 1014.26 1014.51 1014.75 1014.99 1015.23 1015.48 1015.70 1015.91 1016.07 1016.19 1016.27 1016.30 1016.30 1016.28 1016.26 1016.26 1016.28 1016.32 1016.38 1016.46 1016.54 1016.60 1016.64 1016.64 1016.60 1016.52
1013.11 1013.12 1013.11 1013.05 1012.94 1012.80 1012.64 1012.49 1012.38 1012.33 1012.34 1012.42 1012.55 1012.72 1012.93 1013.16 1013.41 1013.66 1013.92 1014.18 1014.46 1014.74 1015.01 1015.26 1015.48 1015.67 1015.81 1015.90 1015.95 1015.97 1015.97 1015.96 1015.96 1015.98 1016.03 1016.09 1016.18 1016.27 1016.36 1016.43 1016.49 1016.51 1016.49
1013.12 1013.12 1013.10 1013.03 1012.92 1012.78 1012.62 1012.45 1012.31 1012.21 1012.15 1012.15 1012.20 1012.30 1012.45 1012.63 1012.84 1013.08 1013.34 1013.63 1013.92 1014.22 1014.51 1014.78 1015.02 1015.22 1015.38 1015.48 1015.55 1015.59 1015.61 1015.62 1015.64 1015.67 1015.73 1015.80 1015.89 1015.99 1016.10 1016.21 1016.29 1016.35 1016.37
1013.14 1013.14 1013.10 1013.03 1012.92 1012.78 1012.61 1012.43 1012.27 1012.12 1012.01 1011.94 1011.91 1011.94 1012.01 1012.14 1012.31 1012.52 1012.78 1013.06 1013.36 1013.66 1013.96 1014.24 1014.49 1014.70 1014.86 1014.99 1015.08 1015.14 1015.19 1015.23 1015.28 1015.34 1015.41 1015.50 1015.60 1015.71 1015.83 1015.94 1016.04 1016.11 1016.14
1013.18 1013.14 1013.09 1013.00 1012.88 1012.73 1012.56 1012.37 1012.19 1012.01 1011.85 1011.72 1011.63 1011.59 1011.60 1011.66 1011.79 1011.97 1012.19 1012.46 1012.75 1013.05 1013.34 1013.62 1013.86 1014.08 1014.26 1014.40 1014.52 1014.62 1014.70 1014.78 1014.87 1014.97 1015.07 1015.18 1015.29 1015.41 1015.52 1015.62 1015.71 1015.77 1015.80
1013.17 1013.09 1012.99 1012.86 1012.72 1012.56 1012.38 1012.19 1011.99 1011.79 1011.61 1011.44 1011.30 1011.20 1011.15 1011.17 1011.24 1011.38 1011.58 1011.81 1012.08 1012.36 1012.63 1012.90 1013.14 1013.36 1013.55 1013.72 1013.87 1014.01 1014.14 1014.28 1014.42 1014.55 1014.69 1014.82 1014.95 1015.06 1015.16 1015.24 1015.30 1015.34 1015.35
1013.09 1012.93 1012.75 1012.57 1012.38 1012.19 1012.00 1011.80 1011.60 1011.40 1011.20 1011.02 1010.85 1010.72 1010.64 1010.62 1010.65 1010.75 1010.91 1011.11 1011.34 1011.60 1011.85 1012.10 1012.34 1012.56 1012.76 1012.95 1013.14 1013.33 1013.53 1013.72 1013.91 1014.10 1014.28 1014.43 1014.57 1014.67 1014.75 1014.80 1014.83 1014.84 1014.82
1012.86 1012.59 1012.32 1012.05 1011.80 1011.58 1011.36 1011.16 1010.97 1010.78 1010.60 1010.42 1010.26 1010.12 1010.03 1009.98 1010.00 1010.07 1010.19 1010.37 1010.57 1010.79 1011.02 1011.26 1011.49 1011.71 1011.93 1012.16 1012.39 1012.63 1012.88 1013.14 1013.39 1013.62 1013.84 1014.02 1014.16 1014.25 1014.31 1014.34 1014.33 1014.30 1014.26
1012.46 1012.06 1011.67 1011.31 1010.99 1010.71 1010.47 1010.27 1010.09 1009.93 1009.77 1009.63 1009.50 1009.39 1009.31 1009.28 1009.29 1009.35 1009.46 1009.60 1009.78 1009.98 1010.19 1010.42 1010.64 1010.87 1011.11 1011.37 1011.64 1011.94 1012.24 1012.56 1012.86 1013.14 1013.38 1013.58 1013.73 1013.82 1013.87 1013.87 1013.84 1013.79 1013.73
1011.89 1011.35 1010.83 1010.37 1009.96 1009.63 1009.37 1009.16 1009.00 1008.87 1008.77 1008.68 1008.60 1008.54 1008.51 1008.51 1008.54 1008.62 1008.72 1008.86 1009.03 1009.21 1009.41 1009.62 1009.85 1010.09 1010.35 1010.63 1010.95 1011.29 1011.64 1012.00 1012.34 1012.66 1012.94 1013.16 1013.31 1013.41 1013.45 1013.44 1013.41 1013.35 1013.28
1011.18 1010.51 1009.88 1009.31 1008.82 1008.43 1008.14 1007.93 1007.79 1007.70 1007.65 1007.63 1007.62 1007.64 1007.67 1007.72 1007.80 1007.90 1008.03 1008.18 1008.34 1008.52 1008.71 1008.92 1009.15 1009.40 1009.67 1009.98 1010.33 1010.70 1011.09 1011.48 1011.86 1012.21 1012.51 1012.75 1012.92 1013.03 1013.08 1013.09 1013.06 1013.01 1012.96
1010.43 1009.65 1008.91 1008.25 1007.69 1007.25 1006.92 1006.70 1006.58 1006.53 1006.53 1006.58 1006.65 1006.74 1006.84 1006.97 1007.10 1007.25 1007.41 1007.57 1007.75 1007.93 1008.12 1008.33 1008.56 1008.81 1009.10 1009.43 1009.80 1010.19 1010.61 1011.02 1011.43 1011.80 1012.12 1012.38 1012.58 1012.71 1012.78 1012.81 1012.81 1012.79 1012.77
1009.71 1008.85 1008.04 1007.31 1006.69 1006.20 1005.84 1005.60 1005.48 1005.46 1005.50 1005.61 1005.75 1005.91 1006.09 1006.28 1006.47 1006.67 1006.87 1007.06 1007.25 1007.44 1007.64 1007.85 1008.08 1008.34 1008.64 1008.97 1009.35 1009.76 1010.19 1010.62 1011.04 1011.43 1011.77 1012.06 1012.28 1012.44 1012.55 1012.62 1012.65 1012.67 1012.67
1009.13 1008.23 1007.38 1006.60 1005.94 1005.40 1005.01 1004.75 1004.62 1004.60 1004.67 1004.81 1004.99 1005.21 1005.45 1005.70 1005.94 1006.18 1006.41 1006.62 1006.83 1007.03 1007.24 1007.45 1007.69 1007.95 1008.26 1008.60 1008.98 1009.40 1009.84 1010.28 1010.71 1011.12 1011.48 1011.78 1012.04 1012.23 1012.38 1012.48 1012.56 1012.61 1012.65
Thickness
5629 5629 5629 5629 5628 5628 5628 5627 5627 5627 5626 5626 5626 5628 5629 5631 5633 5635 5636 5638 5639 5639 5641 5642 5642 5643 5643 5644 5644 5643 5643 5643 5645 5644 5644 5646 5649 5650 5650 5649 5648 5647 5646
5623 5623 5623 5622 5621 5621 5620 5619 5619 5619 5619 5618 5619 5620 5621 5622 5624 5626 5628 5629 5630 5631 5633 5633 5634 5635 5634 5635 5635 5635 5635 5635 5636 5635 5633 5634 5636 5639 5641 5641 5640 5639 5638
5617 5618 5617 5616 5615 5614 5613 5613 5612 5611 5611 5611 5612 5612 5613 5614 5615 5617 5619 5620 5622 5623 5624 5625 5626 5627 5627 5626 5627 5627 5626 5626 5627 5628 5627 5625 5627 5627 5630 5631 5631 5630 5629
5614 5613 5612 5611 5609 5608 5606 5605 5604 5604 5604 5604 5604 5603 5604 5604 5606 5607 5609 5612 5613 5615 5616 5617 5618 5619 5619 5619 5620 5620 5620 5619 5619 5619 5620 5621 5621 5618 5618 5620 5621 5620 5619
5609 5609 5608 5606 5605 5603 5600 5599 5598 5597 5597 5596 5596 5596 5596 5597 5598 5600 5602 5604 5605 5607 5608 5608 5610 5611 5611 5612 5612 5613 5613 5613 5612 5611 5612 5612 5612 5612 5610 5609 5609 5609 5610
5606 5605 5603 5601 5599 5597 5594 5593 5591 5591 5590 5589 5588 5588 5588 5589 5589 5591 5593 5595 5597 5599 5600 5601 5602 5603 5604 5604 5605 5605 5605 5605 5605 5605 5605 5605 5604 5603 5602 5601 5600 5599 5600
5599 5598 5596 5594 5592 5590 5588 5586 5585 5584 5584 5583 5582 5581 5581 5581 5582 5584 5586 5588 5589 5590 5592 5593 5594 5595 5596 5597 5597 5597 5598 5598 5598 5599 5599 5599 5599 5598 5596 5594 5591 5590 5590
5593 5592 5591 5589 5587 5585 5582 5580 5579 5578 5577 5577 5576 5576 5576 5576 5576 5578 5579 5581 5582 5583 5584 5585 5587 5588 5589 5589 5589 5590 5590 5590 5591 5591 5591 5590 5590 5590 5588 5586 5583 5581 5581
5588 5587 5586 5585 5582 5580 5578 5576 5574 5573 5572 5571 5571 5571 5571 5571 5571 5573 5573 5574 5575 5576 5576 5578 5579 5580 5581 5581 5582 5582 5582 5582 5582 5583 5582 5582 5582 5581 5580 5579 5577 5574 5572
5581 5581 5580 5579 5578 5576 5574 5572 5569 5568 5567 5566 5565 5566 5566 5566 5566 5567 5567 5567 5568 5568 5568 5570 5571 5572 5573 5574 5574 5574 5574 5574 5574 5574 5573 5573 5572 5572 5571 5570 5569 5568 5567
5574 5573 5573 5573 5572 5571 5569 5566 5564 5563 5561 5560 5559 5559 5559 5560 5560 5560 5561 5561 5561 5561 5562 5563 5564 5564 5565 5565 5565 5565 5565 5565 5565 5564 5564 5564 5564 5563 5563 5562 5561 5560 5558
5567 5566 5565 5565 5564 5563 5562 5561 5559 5557 5556 5555 5554 5554 5553 5553 5554 5554 5555 5555 5555 5555 5555 5556 5557 5557 5557 5557 5557 5557 5557 5557 5557 5556 5556 5555 5555 5554 5553 5553 5552 5551 5550
5561 5559 5557 5556 5556 5557 5556 5556 5554 5552 5551 5550 5548 5548 5547 5547 5548 5548 5549 5549 5548 5548 5549 5549 5549 5550 5549 5549 5549 5549 5549 5549 5549 5548 5548 5548 5547 5546 5545 5544 5543 5541 5541
5553 5552 5550 5550 5550 5551 5550 5550 5549 5547 5546 5544 5543 5542 5542 5541 5542 5543 5543 5543 5542 5542 5542 5542 5542 5542 5542 5541 5541 5541 5540 5540 5540 5540 5540 5539 5539 5538 5536 5535 5534 5533 5531
5547 5546 5544 5543 5544 5544 5544 5543 5543 5542 5541 5539 5538 5537 5537 5536 5536 5536 5537 5537 5537 5537 5536 5536 5536 5536 5535 5534 5533 5532 5532 5531 5531 5531 5531 5531 5530 5529 5528 5528 5526 5524 5522
5538 5538 5539 5538 5537 5537 5537 5537 5536 5536 5536 5534 5533 5532 5531 5531 5530 5530 5530 5530 5530 5530 5530 5530 5529 5528 5528 5527 5526 5525 5523 5523 5522 5522 5522 5521 5521 5520 5520 5519 5518 5516 5514
5529 5529 5530 5530 5530 5530 5531 5530 5530 5530 5529 5528 5527 5527 5526 5525 5524 5524 5524 5524 5524 5524 5524 5524 5523 5522 5521 5520 5519 5517 5516 5515 5514 5513 5513 5513 5512 5511 5510 5509 5508 5507 5506
5520 5520 5520 5522 5523 5524 5523 5523 5524 5523 5522 5521 5521 5520 5520 5519 5518 5517 5517 5517 5517 5517 5517 5517 5517 5515 5514 5513 5512 5510 5509 5507 5506 5506 5505 5504 5503 5502 5502 5500 5499 5497 5496
5510 5511 5512 5513 5514 5515 5515 5515 5515 5515 5514 5514 5514 5514 5514 5513 5512 5511 5511 5511 5510 5511 5511 5510 5509 5508 5507 5506 5505 5503 5501 5500 5498 5498 5497 5496 5495 5495 5493 5491 5489 5488 5486
5501 5502 5503 5504 5505 5506 5507 5506 5506 5506 5506 5508 5508 5507 5507 5506 5506 5505 5505 5505 5504 5504 5504 5503 5502 5501 5500 5500 5498 5496 5494 5492 5491 5490 5489 5489 5487 5486 5485 5482 5480 5478 5477
5492 5493 5494 5494 5495 5496 5497 5497 5497 5498 5500 5501 5501 5500 5500 5499 5499 5498 5498 5498 5497 5496 5496 5495 5494 5494 5493 5493 5491 5489 5486 5485 5483 5482 5481 5480 5479 5478 5476 5474 5472 5471 5469
5483 5484 5483 5485 5485 5486 5486 5488 5488 5491 5492 5492 5492 5492 5492 5492 5492 5490 5490 5489 5489 5488 5487 5486 5485 5485 5485 5484 5483 5481 5479 5477 5475 5474 5473 5472 5470 5469 5466 5464 5463 5461 5460
5474 5474 5473 5475 5476 5476 5476 5477 5480 5481 5482 5483 5483 5484 5484 5484 5483 5482 5481 5480 5480 5480 5479 5478 5477 5477 5476 5475 5475 5473 5471 5469 5467 5466 5465 5463 5461 5459 5456 5454 5453 5451 5449
5463 5464 5464 5464 5466 5466 5467 5468 5470 5471 5472 5473 5474 5474 5474 5475 5474 5474 5473 5472 5472 5471 5471 5470 5470 5469 5468 5466 5465 5464 5462 5461 5458 5456 5455 5454 5451 5448 5446 5444 5442 5440 5438
5453 5453 5453 5454 5456 5457 5458 5459 5460 5460 5461 5462 5464 5465 5465 5465 5465 5465 5465 5465 5466 5465 5465 5464 5463 5461 5460 5461 5459 5456 5454 5452 5449 5447 5444 5442 5439 5437 5435 5433 5431 5430 5428
5442 5442 5443 5444 5445 5446 5448 5449 5449 5450 5450 5452 5453 5454 5455 5455 5455 5455 5456 5457 5456 5457 5457 5457 5456 5455 5454 5452 5451 5449 5446 5444 5441 5438 5435 5433 5431 5429 5427 5424 5422 5420 5418